Weather Roundup
Issued by NWS Springfield, MO

Home | Current Version | Previous Version | Text Only | Print | Product List | Glossary On
Versions: 1 2 3 4 5 6 7 8 9 10 11 12 13 14 15 16 17 18 19 20 21 22 23 24 25 26 27 28 29 30 31 32 33 34 35 36 37 38 39 40 41 42 43 44 45 46 47 48 49 50
000
NZUS99 KSGF 230357
HRRSGF

HOURLY WEATHER
NATIONAL WEATHER SERVICE SPRINGFIELD MO
1100 PM CDT TUE AUG 22 2017

......SGF CWA......

CITY           SKY/WX    TMP DP  RH WIND       PRES   REMARKS
SPRINGFIELD    CLOUDY    73  66  78 NE10      30.10R
JOPLIN         PTCLDY    74  69  85 NE7       30.10R
WEST PLAINS    CLEAR     70  66  87 NE3       30.10R
ROLLA          CLEAR     67  63  87 N5        30.10R

......SURROUNDING SGF CWA......

CITY           SKY/WX    TMP DP  RH WIND       PRES   REMARKS
CHANUTE        CLEAR     70  62  76 N9        30.12R
PARSONS        CLEAR     69  64  84 N5        30.12R
COFFEYVILLE    CLEAR     71  66  84 NE9       30.10R
EMPORIA        CLEAR     63  57  81 NE7       30.15R
HARRISON AR    CLOUDY    75  72  90 N3        30.09R

......KANSAS AND MISSOURI......

CITY           SKY/WX    TMP DP  RH WIND       PRES   REMARKS
KANSAS CTY INT CLEAR     62  53  72 N8        30.15R
SEDALIA        CLEAR     64  61  90 N3        30.12R
ST JOSEPH      CLEAR     56  56 100 CALM      30.15R
ST LOUIS       CLEAR     70  60  70 N8        30.07R
WICHITA        CLEAR     71  51  49 NE10      30.14R
TOPEKA         CLEAR     63  57  81 N6        30.15R
OLATHE         CLEAR     66  54  65 N8        30.14R

......TENNESSEE......

CITY           SKY/WX    TMP DP  RH WIND       PRES   REMARKS
MEMPHIS        NOT AVBL
NASHVILLE      CLOUDY    73  71  93 W6        30.01R

......ARKANSAS.......

CITY           SKY/WX    TMP DP  RH WIND       PRES   REMARKS
FAYETTEVILLE   MOCLDY    75  74  96 CALM      30.08S
FT SMITH       CLOUDY    80  73  79 SW13G22   30.03R
LITTLE ROCK    PTCLDY    80  73  79 NE8       30.01R

......OKLAHOMA.......

CITY           SKY/WX    TMP DP  RH WIND       PRES   REMARKS
TULSA          CLOUDY    79  72  79 N7        30.05R
PONCA CITY     CLOUDY    75  69  81 NE7       30.10R
MCALESTER      RAIN      73  71  93 SW3       30.09S
OKLAHOMA CITY  RAIN      71  70  96 NE9       30.10R

......IOWA............

CITY           SKY/WX    TMP DP  RH WIND       PRES   REMARKS
DES MOINES     NOT AVBL
QUAD CITIES    CLEAR     64  53  67 NW8       30.06R

......ILLINOIS........

CITY           SKY/WX    TMP DP  RH WIND       PRES   REMARKS
QUINCY         NOT AVBL
CHICAGO        PTCLDY    67  50  54 NW9       30.00R




USA.gov is the U.S. government's official web portal to all federal, state and local government web resources and services.